Find Starlink 31542

NORAD ID: 59194 Int'l Des: 2024-045 Owner: SPXS Country: US Constellation: starlink operational
LEOCIRCULAR

Current View

Loading 3D Globe...

About Starlink 31542

Starlink 31542 (NORAD 59194) is a starlink constellation satellite (v2 mini) launched Mar 11, 2024 by SPXS of US. It operates in LEO, CIRCULAR orbit with a mass of 730.00 kg.

About Starlink 31542

Description loading...

Upcoming Passes

Passes for default location (London). Set your location on the main map for personalized predictions.

Altitude History

Loading altitude history...

Two-Line Element Set

1 59194U 24045S 26173.48938223 .00000041 00000-0 10997-4 0 9996
2 59194 42.9995 220.3007 0001354 276.8985 83.1713 15.27578590129194
Epoch: Jun 22, 2026 • Age: 26 hours

Current Status

Altitude 485.9 km
Velocity 7.63 km/s
Sub-Earth Point 37.49°N, 132.8°W
Launch Date Mar 11, 2024
Age 2.2 years
Type internet

Technical Details

Classification Payload
Mass 730.00 kg
Dry Mass 700.00 kg
Total Mass 730.00 kg
Length 0.30 m
Diameter 4.10 m
Span 29.00 m
Shape Box + pan
Manufacturer SPXS
Bus Type Starlink V2M
Phase Status In Orbit
Owner/State SPXS/US

Most Searched